TimeMDT,TemperatureF,Dew PointF,Humidity,Sea Level PressureIn,VisibilityMPH,Wind Direction,Wind SpeedMPH,Gust SpeedMPH,PrecipitationIn,Events,Conditions,WindDirDegrees,DateUTC
12:22 AM,64.4,62.6,94,30.29,8.0,East,6.9,-,0.01,,Overcast,90,2013-09-12 06:22:00
12:40 AM,64.4,62.6,94,30.29,5.0,East,6.9,-,0.01,Rain,Light Rain,80,2013-09-12 06:40:00
12:53 AM,64.0,62.1,93,30.18,8.0,East,8.1,-,0.01,,Overcast,100,2013-09-12 06:53:00
1:37 AM,64.4,62.6,94,30.29,6.0,East,8.1,-,0.03,Rain,Light Rain,80,2013-09-12 07:37:00
1:51 AM,64.4,62.6,94,30.29,7.0,ENE,9.2,-,0.03,,Overcast,70,2013-09-12 07:51:00
1:53 AM,63.0,62.1,97,30.17,7.0,ENE,8.1,-,0.03,,Overcast,70,2013-09-12 07:53:00
2:05 AM,62.6,60.8,94,30.29,8.0,ENE,8.1,-,N/A,,Overcast,60,2013-09-12 08:05:00
2:26 AM,62.6,60.8,94,30.29,9.0,ENE,5.8,-,N/A,,Overcast,70,2013-09-12 08:26:00
2:46 AM,62.6,60.8,94,30.29,8.0,ENE,4.6,-,N/A,,Overcast,60,2013-09-12 08:46:00
2:53 AM,63.0,61.0,93,30.18,8.0,ENE,5.8,-,N/A,,Overcast,70,2013-09-12 08:53:00
3:09 AM,62.6,60.8,94,30.29,7.0,ENE,3.5,-,N/A,,Overcast,70,2013-09-12 09:09:00
3:38 AM,62.6,60.8,94,30.29,6.0,ENE,3.5,-,N/A,,Overcast,70,2013-09-12 09:38:00
3:53 AM,63.0,61.0,93,30.18,5.0,East,5.8,-,N/A,,Overcast,80,2013-09-12 09:53:00
4:04 AM,62.6,60.8,94,30.29,6.0,East,5.8,-,N/A,,Overcast,80,2013-09-12 10:04:00
4:11 AM,62.6,60.8,94,30.29,5.0,East,5.8,-,N/A,,Overcast,80,2013-09-12 10:11:00
4:17 AM,62.6,60.8,94,30.29,5.0,ENE,6.9,-,N/A,,Overcast,70,2013-09-12 10:17:00
4:31 AM,62.6,60.8,94,30.30,5.0,ENE,6.9,-,N/A,,Overcast,70,2013-09-12 10:31:00
4:38 AM,62.6,60.8,94,30.30,5.0,ENE,5.8,-,N/A,,Overcast,70,2013-09-12 10:38:00
4:53 AM,63.0,61.0,93,30.19,5.0,ENE,5.8,-,N/A,,Overcast,70,2013-09-12 10:53:00
5:13 AM,62.6,60.8,94,30.30,5.0,ENE,4.6,-,N/A,,Overcast,70,2013-09-12 11:13:00
5:50 AM,62.6,60.8,94,30.30,5.0,NE,8.1,-,N/A,,Overcast,50,2013-09-12 11:50:00
5:53 AM,63.0,61.0,93,30.19,5.0,NE,5.8,-,N/A,,Overcast,50,2013-09-12 11:53:00
6:53 AM,63.0,61.0,93,30.20,6.0,NE,8.1,-,N/A,,Overcast,40,2013-09-12 12:53:00
7:38 AM,62.6,60.8,94,30.32,2.5,NE,9.2,-,N/A,,Overcast,40,2013-09-12 13:38:00
7:53 AM,63.0,61.0,93,30.22,3.0,NE,9.2,-,N/A,,Overcast,50,2013-09-12 13:53:00
8:01 AM,62.6,60.8,94,30.33,2.5,NE,11.5,-,N/A,,Overcast,50,2013-09-12 14:01:00
8:08 AM,62.6,60.8,94,30.33,3.0,ENE,9.2,-,N/A,,Overcast,70,2013-09-12 14:08:00
8:24 AM,62.6,60.8,94,30.33,4.0,ENE,10.4,-,N/A,,Overcast,70,2013-09-12 14:24:00
8:53 AM,64.0,61.0,90,30.23,5.0,ENE,11.5,-,N/A,,Overcast,70,2013-09-12 14:53:00
9:04 AM,64.4,60.8,88,30.34,5.0,ENE,10.4,-,N/A,,Mostly Cloudy,70,2013-09-12 15:04:00
9:19 AM,64.4,60.8,88,30.34,7.0,East,11.5,-,N/A,,Overcast,80,2013-09-12 15:19:00
9:31 AM,64.4,60.8,88,30.34,7.0,East,13.8,-,N/A,,Mostly Cloudy,80,2013-09-12 15:31:00
9:53 AM,66.0,60.1,81,30.23,10.0,East,12.7,-,N/A,,Scattered Clouds,80,2013-09-12 15:53:00
10:08 AM,68.0,60.8,78,30.34,10.0,East,16.1,-,N/A,,Mostly Cloudy,90,2013-09-12 16:08:00
10:53 AM,68.0,59.0,73,30.23,10.0,East,16.1,-,N/A,,Overcast,90,2013-09-12 16:53:00
11:17 AM,69.8,59.0,68,30.34,10.0,East,16.1,-,N/A,,Overcast,100,2013-09-12 17:17:00
11:53 AM,70.0,57.9,65,30.22,10.0,East,17.3,21.9,N/A,,Mostly Cloudy,90,2013-09-12 17:53:00
12:53 PM,69.1,60.1,73,30.20,7.0,East,18.4,-,N/A,,Mostly Cloudy,100,2013-09-12 18:53:00
1:02 PM,69.8,60.8,73,30.32,8.0,ESE,15.0,-,N/A,,Mostly Cloudy,120,2013-09-12 19:02:00
1:53 PM,70.0,60.1,71,30.19,10.0,ESE,17.3,23.0,N/A,,Overcast,110,2013-09-12 19:53:00
2:15 PM,69.8,59.0,68,30.31,10.0,ESE,17.3,-,N/A,,Overcast,120,2013-09-12 20:15:00
2:53 PM,71.1,51.1,49,30.18,10.0,ESE,18.4,25.3,N/A,,Overcast,120,2013-09-12 20:53:00
3:53 PM,72.0,53.1,51,30.15,10.0,ESE,13.8,-,N/A,,Mostly Cloudy,110,2013-09-12 21:53:00
4:53 PM,72.0,54.0,53,30.14,10.0,SE,17.3,-,N/A,,Mostly Cloudy,130,2013-09-12 22:53:00
5:53 PM,69.1,57.0,65,30.15,10.0,SE,16.1,-,N/A,,Scattered Clouds,140,2013-09-12 23:53:00
6:53 PM,66.0,55.0,68,30.17,10.0,SSE,17.3,-,N/A,,Overcast,150,2013-09-13 00:53:00
7:53 PM,64.0,52.0,65,30.17,10.0,SE,13.8,-,N/A,,Overcast,140,2013-09-13 01:53:00
8:53 PM,63.0,53.1,70,30.18,10.0,SE,11.5,-,N/A,,Mostly Cloudy,140,2013-09-13 02:53:00
9:53 PM,63.0,55.9,78,30.18,10.0,SE,10.4,-,N/A,,Overcast,140,2013-09-13 03:53:00
10:53 PM,63.0,57.9,84,30.17,10.0,SE,12.7,-,N/A,,Overcast,130,2013-09-13 04:53:00
11:30 PM,62.6,57.2,82,30.28,10.0,SE,15.0,-,N/A,,Overcast,130,2013-09-13 05:30:00
11:53 PM,61.0,59.0,93,30.16,4.0,SE,17.3,24.2,0.00,Rain,Light Rain,140,2013-09-13 05:53:00